Location: Unspecified
(0.0000°N, 0.0000°E)
Time: 13:36:56
(UTC+00:00)

Vanguard 2 Rocket - Pass Details

Date: 17 December 2017
Orbit: 553 x 3328 km, 32.9° (Epoch: 22 April)

Event Time Altitude Azimuth Distance (km) Brightness Sun altitude
Rises 21:05:36 0° 320° (NW) 5,858 11.1 -42.4°
Reaches altitude 10° 21:11:26 10° 338° (NNW) 5,348 10.7 -43.6°
Enters shadow 21:13:50 13° 347° (NNW) 5,239 10.5 -44.1°
